Date String (YYYY-MM-DD hh:mm:ss) UTC,Instrument flags,absolute air pressure of the measurement (hPa),sample flow rate (lpm),inlet stack bypass flow (lpm),air temperature of the measurement (°C),ambient temperature measured by the external sensor (°C),aerosol sample conditioner tube jacket temperature (°C),OPC LED temperature (°C),internal box temperature (°C),relative humidity of the measurement (%),span deviation,mass concentration of particles derived from Lorenz-Mie calculation of OPC scattering (μg/m³),mass concentration of particles derived from Lorenz-Mie calculation of OPC scattering (μg/m³),mass concentration of particles derived from Lorenz-Mie calculation of OPC scattering (μg/m³)
DateTimeUTC,F1_M11,P_M11,Q1_M11,Q2_M11,T1_M11,T2_M11,T3_M11,T4_M11,T5_M11,U1_M11,ZSPAN_M11,X2_M11,X0_M11,X1_M11
2023-07-20 08:00:00,SystemResetWarning,0837.6,5.00,000.00,030.1,028.0,000.0,038.6,031.3,34.6,0000.7,0007.86,0015.93,0006.66
2023-07-20 08:01:00,SystemResetWarning,0837.6,4.99,000.00,030.1,028.2,000.0,038.6,031.3,34.6,0000.9,0007.77,0015.38,0006.59
2023-07-20 08:02:00,SystemResetWarning,0837.7,5.00,000.00,030.1,028.3,000.0,038.6,031.4,34.5,0000.8,0007.62,0014.07,0006.53
2023-07-20 08:03:00,SystemResetWarning,0837.6,4.99,000.00,030.1,028.4,000.0,038.6,031.4,34.4,0001.0,0007.57,0013.49,0006.50
2023-07-20 08:04:00,SystemResetWarning,0837.6,5.00,000.00,030.1,028.4,000.0,038.6,031.4,34.2,0001.0,0007.52,0013.27,0006.44
2023-07-20 08:05:00,SystemResetWarning,0837.5,4.99,000.00,030.2,027.4,000.0,038.5,031.4,34.1,0000.3,0007.48,0013.15,0006.37
2023-07-20 08:06:00,SystemResetWarning,0837.4,4.99,000.00,030.1,025.9,000.0,038.3,031.1,34.7,-000.2,0007.45,0013.19,0006.33
2023-07-20 08:07:00,SystemResetWarning,0837.3,5.02,000.00,030.1,025.5,000.0,038.3,031.0,35.5,-000.9,0007.44,0013.20,0006.33
2023-07-20 08:08:00,SystemResetWarning,0837.3,5.00,000.00,030.1,025.6,000.0,038.3,030.9,34.6,-001.2,0007.47,0015.77,0006.37
2023-07-20 08:09:00,SystemResetWarning,0837.3,4.99,000.00,030.2,026.0,000.0,038.3,031.0,34.1,-001.3,0007.51,0016.14,0006.39
2023-07-20 08:10:00,SystemResetWarning,0837.2,5.02,000.00,030.3,026.4,000.0,038.4,031.0,34.0,-001.0,0007.57,0016.91,0006.43
2023-07-20 08:11:00,SystemResetWarning,0837.2,5.00,000.00,030.3,026.8,000.0,038.4,031.1,33.9,-001.5,0007.62,0016.92,0006.48
2023-07-20 08:12:00,SystemResetWarning,0837.2,5.00,000.00,030.3,027.1,000.0,038.4,031.1,33.8,-002.0,0007.71,0017.33,0006.55
2023-07-20 08:13:00,SystemResetWarning,0837.2,5.00,000.00,030.4,027.4,000.0,038.5,031.2,33.9,-001.7,0007.83,0019.20,0006.62
2023-07-20 08:14:00,SystemResetWarning,0837.3,5.00,000.00,030.4,027.6,000.0,038.5,031.2,33.7,-001.7,0007.95,0019.51,0006.70
2023-07-20 08:15:00,SystemResetWarning,0837.3,5.00,000.00,030.4,027.8,000.0,038.5,031.2,33.7,-001.3,0008.05,0019.91,0006.80
2023-07-20 08:16:00,SystemResetWarning,0837.2,5.00,000.00,030.4,027.9,000.0,038.6,031.3,33.7,-001.1,0008.12,0020.73,0006.90
2023-07-20 08:17:00,SystemResetWarning,0837.3,5.00,000.00,030.4,028.1,000.0,038.6,031.3,33.8,-001.3,0008.24,0021.41,0006.98
2023-07-20 08:18:00,SystemResetWarning,0837.2,5.00,000.00,030.4,028.2,000.0,038.6,031.4,33.7,-001.3,0008.35,0021.69,0007.04
2023-07-20 08:19:00,SystemResetWarning,0837.2,5.00,000.00,030.4,028.3,000.0,038.6,031.4,33.8,-000.7,0008.41,0020.70,0007.08
2023-07-20 08:20:00,SystemResetWarning,0837.2,5.00,000.00,030.4,028.3,000.0,038.6,031.4,33.8,-000.6,0008.45,0020.35,0007.11
2023-07-20 08:21:00,SystemResetWarning,0837.4,5.00,000.00,030.4,028.4,000.0,038.7,031.5,33.8,-000.7,0008.42,0020.14,0007.11
2023-07-20 08:22:00,SystemResetWarning,0837.4,5.00,000.00,030.5,028.3,000.0,038.7,031.5,33.8,-000.3,0008.39,0019.98,0007.10
2023-07-20 08:23:00,SystemResetWarning,0837.3,4.99,000.00,030.4,026.7,000.0,038.5,031.3,33.7,0000.1,0008.32,0019.41,0007.07
2023-07-20 08:24:00,SystemResetWarning,0837.3,5.01,000.00,030.4,025.5,000.0,038.4,031.1,33.8,0000.0,0008.24,0017.92,0007.06
2023-07-20 08:25:00,SystemResetWarning,0837.4,5.01,000.00,030.2,025.4,000.0,038.4,030.8,34.0,-000.6,0008.19,0018.08,0007.02
2023-07-20 08:26:00,SystemResetWarning,0837.4,4.99,000.00,030.1,025.7,000.0,038.4,030.7,34.0,-000.9,0008.17,0017.75,0007.00
2023-07-20 08:27:00,SystemResetWarning,0837.5,5.00,000.00,030.0,026.1,000.0,038.4,030.8,33.9,-001.0,0008.16,0017.20,0007.01
2023-07-20 08:28:00,SystemResetWarning,0837.5,5.01,000.00,030.0,026.5,000.0,038.4,030.9,34.0,-000.6,0008.13,0016.66,0007.00
2023-07-20 08:29:00,SystemResetWarning,0837.6,5.00,000.00,030.0,026.9,000.0,038.4,030.9,33.9,-000.4,0008.10,0016.34,0007.00
2023-07-20 08:30:00,SystemResetWarning,0837.6,5.00,000.00,030.0,027.1,000.0,038.4,031.0,33.9,-001.1,0008.07,0014.88,0006.98
2023-07-20 08:31:00,SystemResetWarning,0837.7,4.98,000.00,030.0,027.4,000.0,038.4,031.1,33.6,-001.1,0008.05,0014.90,0006.98
2023-07-20 08:32:00,SystemResetWarning,0837.6,5.00,000.00,030.0,027.6,000.0,038.4,031.1,33.1,-001.4,0008.06,0015.07,0007.01
2023-07-20 08:33:00,SystemResetWarning,0837.6,5.00,000.00,030.0,027.8,000.0,038.4,031.1,32.9,-001.5,0008.07,0015.40,0007.02
2023-07-20 08:34:00,SystemResetWarning,0837.7,5.00,000.00,030.0,027.9,000.0,038.4,031.2,32.4,-001.4,0008.11,0016.14,0007.02
2023-07-20 08:35:00,SystemResetWarning,0837.7,5.00,000.00,030.0,028.0,000.0,038.4,031.2,32.1,-001.4,0008.16,0015.87,0007.01
2023-07-20 08:36:00,SystemResetWarning,0837.7,5.01,000.00,030.0,028.1,000.0,038.4,031.2,32.0,-001.2,0008.13,0015.97,0007.01
2023-07-20 08:37:00,SystemResetWarning,0837.7,5.01,000.00,030.0,028.2,000.0,038.4,031.3,32.1,-000.9,0008.08,0016.16,0006.99
2023-07-20 08:38:00,SystemResetWarning,0837.7,5.00,000.00,030.0,028.3,000.0,038.4,031.3,32.2,-000.6,0008.11,0016.09,0006.98
2023-07-20 08:39:00,SystemResetWarning,0837.7,5.00,000.00,030.0,028.4,000.0,038.4,031.4,32.2,-000.5,0008.07,0016.79,0006.95
2023-07-20 08:40:00,SystemResetWarning,0837.7,4.99,000.00,030.1,028.4,000.0,038.4,031.4,32.3,-000.3,0008.04,0017.16,0006.93
2023-07-20 08:41:00,SystemResetWarning,0837.8,4.99,000.00,030.1,028.5,000.0,038.4,031.4,31.1,-000.3,0008.00,0017.97,0006.90
2023-07-20 08:42:00,SystemResetWarning,0837.8,4.99,000.00,030.1,028.1,000.0,038.4,031.4,30.7,-000.0,0007.92,0018.21,0006.87
2023-07-20 08:43:00,SystemResetWarning,0837.8,5.00,000.00,030.0,026.3,000.0,038.3,031.2,31.3,0000.5,0007.89,0017.21,0006.82
2023-07-20 08:44:00,SystemResetWarning,0837.8,5.00,000.00,030.0,025.5,000.0,038.2,031.0,31.9,0001.0,0007.82,0016.68,0006.75
2023-07-20 08:45:00,SystemResetWarning,0837.8,5.01,000.00,029.8,025.5,000.0,038.2,030.7,31.7,0000.7,0007.72,0015.63,0006.68
2023-07-20 08:46:00,SystemResetWarning,0837.9,5.00,000.00,029.7,025.8,000.0,038.2,030.7,31.4,0000.5,0007.61,0015.58,0006.60
2023-07-20 08:47:00,SystemResetWarning,0838.0,4.99,000.00,029.7,026.2,000.0,038.2,030.8,31.5,0000.7,0007.56,0015.80,0006.53
2023-07-20 08:48:00,SystemResetWarning,0838.2,5.00,000.00,029.7,026.6,000.0,038.2,030.8,31.1,0000.8,0007.54,0015.45,0006.47
2023-07-20 08:49:00,SystemResetWarning,0838.2,5.00,000.00,029.7,027.0,000.0,038.2,030.9,31.1,0000.7,0007.44,0015.27,0006.38
2023-07-20 08:50:00,SystemResetWarning,0838.4,5.01,000.00,029.7,027.2,000.0,038.2,030.9,31.0,0000.5,0007.39,0014.70,0006.33
2023-07-20 08:51:00,SystemResetWarning,0838.6,5.01,000.00,029.7,027.5,000.0,038.2,031.0,31.5,0000.5,0007.33,0014.03,0006.30
2023-07-20 08:52:00,SystemResetWarning,0838.8,4.99,000.00,029.7,027.6,000.0,038.2,031.0,33.3,0000.8,0007.30,0013.54,0006.27
2023-07-20 08:53:00,SystemResetWarning,0838.7,4.99,000.00,029.7,027.7,000.0,038.2,031.0,32.3,0000.5,0007.27,0013.30,0006.23
2023-07-20 08:54:00,SystemResetWarning,0838.7,5.00,000.00,029.7,027.9,000.0,038.2,031.1,31.0,0000.4,0007.15,0013.14,0006.14
2023-07-20 08:55:00,SystemResetWarning,0838.6,5.00,000.00,029.7,027.9,000.0,038.2,031.1,29.6,0000.0,0007.07,0012.91,0006.10
2023-07-20 08:56:00,SystemResetWarning,0838.7,5.02,000.00,029.7,028.0,000.0,038.2,031.1,29.2,-000.3,0007.01,0012.64,0006.07
2023-07-20 08:57:00,SystemResetWarning,0839.1,5.00,000.00,029.7,028.0,000.0,038.2,031.1,30.9,0000.0,0007.00,0012.40,0006.07
2023-07-20 08:58:00,SystemResetWarning,0839.1,4.99,000.00,029.7,028.0,000.0,038.2,031.1,30.8,0000.0,0006.96,0011.94,0006.05
2023-07-20 08:59:00,SystemResetWarning,0839.0,5.00,000.00,029.7,028.1,000.0,038.2,031.1,30.7,0000.0,0006.90,0011.76,0006.03
